EW8543 Weather Reports


Display with metric or nautical units.
time (UTC)temp
F
wind
direction
speed
MPH
gust
MPH
rain 1hr
in
rain 24hr
in
rain mn
in
humidity
%
barometer
mb
20260904125019 67 257 11.0 20.0 0.00 0.55 0.11 88 1011.4
20260904124527 66 245 10.0 24.0 0.00 0.55 0.11 88 1011.1
20260904124032 66 256 14.0 23.0 0.00 0.55 0.11 88 1011.3
20260904123520 66 243 10.0 20.0 0.00 0.55 0.11 89 1011.4
20260904123022 66 248 10.0 20.0 0.00 0.55 0.11 90 1011.3
20260904122528 66 259 12.0 20.0 0.00 0.55 0.11 91 1011.2
20260904122034 66 281 10.0 19.0 0.04 0.55 0.11 92 1011.1
20260904121542 65 210 11.0 19.0 0.04 0.55 0.11 93 1011.1
20260904121022 65 252 10.0 21.0 0.04 0.55 0.11 93 1011.0
20260904120526 65 286 12.0 18.0 0.08 0.55 0.11 94 1011.0
20260904120024 65 279 11.0 20.0 0.12 0.55 0.11 94 1011.0
20260904115533 65 282 12.0 22.0 0.16 0.55 0.11 94 1011.1
20260904115020 65 274 13.0 22.0 0.24 0.55 0.11 94 1010.9
20260904114523 65 255 13.0 20.0 0.28 0.55 0.11 95 1010.9
20260904114057 65 252 10.0 19.0 0.28 0.55 0.11 95 1010.8
20260904113542 65 287 10.0 21.0 0.31 0.55 0.11 95 1010.7
20260904113027 65 315 10.0 18.0 0.35 0.55 0.11 95 1010.5
20260904112529 65 270 8.0 16.0 0.39 0.55 0.11 95 1010.7
20260904112030 65 266 8.0 17.0 0.39 0.51 0.10 95 1010.6
20260904111518 65 284 10.0 17.0 0.51 0.51 0.10 94 1010.6
20260904111026 65 251 6.0 17.0 0.51 0.51 0.10 94 1010.6
20260904110548 64 241 9.0 17.0 0.47 0.47 0.09 94 1010.5
20260904110027 64 290 8.0 15.0 0.43 0.43 0.09 94 1010.5
20260904105535 64 290 10.0 14.0 0.39 0.39 0.08 93 1010.6
20260904105022 65 261 9.0 17.0 0.31 0.31 0.06 93 1010.6
20260904104529 65 241 8.0 17.0 0.28 0.28 0.06 92 1010.5
20260904104033 65 244 10.0 16.0 0.28 0.28 0.06 92 1010.6
20260904103522 65 284 11.0 16.0 0.24 0.24 0.05 91 1010.6
20260904103027 65 264 7.0 18.0 0.20 0.20 0.04 90 1010.6
20260904102534 66 270 10.0 20.0 0.16 0.16 0.03 88 1010.6
20260904102022 68 276 12.0 25.0 0.12 0.12 0.02 85 1010.3
20260904101530 70 144 14.0 26.0 0.00 0.00 0.00 87 1010.0
20260904101019 71 246 15.0 31.0 0.00 0.00 0.00 86 1009.8
20260904100525 71 205 18.0 31.0 0.00 0.00 0.00 86 1009.9
20260904100027 71 179 13.0 36.0 0.00 0.00 0.00 86 1009.9
20260904095528 71 286 16.0 36.0 0.00 0.00 0.00 86 1009.9
20260904095034 71 228 11.0 29.0 0.00 0.00 0.00 86 1009.9
20260904094521 71 194 12.0 26.0 0.00 0.00 0.00 86 1009.9
20260904094028 71 223 15.0 30.0 0.00 0.00 0.00 86 1009.9
20260904093549 71 269 15.0 38.0 0.00 0.00 0.00 86 1009.9
20260904093035 71 200 16.0 38.0 0.00 0.00 0.00 86 1009.9
20260904092544 71 197 14.0 31.0 0.00 0.00 0.00 86 1010.0
20260904092032 71 222 13.0 31.0 0.00 0.00 0.00 86 1009.9
20260904091520 71 153 14.0 25.0 0.00 0.00 0.00 86 1009.9
20260904091041 71 140 12.0 29.0 0.00 0.00 0.00 86 1010.0
20260904090523 71 157 13.0 31.0 0.00 0.00 0.00 86 1009.9
20260904090027 71 242 15.0 36.0 0.00 0.00 0.00 86 1010.1
20260904085536 71 197 20.0 36.0 0.00 0.00 0.00 85 1009.9
20260904085019 71 269 15.0 37.0 0.00 0.00 0.00 85 1009.8
20260904084526 71 184 19.0 37.0 0.00 0.00 0.00 85 1009.8
20260904084033 71 186 17.0 34.0 0.00 0.00 0.00 84 1009.7
20260904083521 71 294 19.0 36.0 0.00 0.00 0.00 85 1009.8
20260904083027 72 190 17.0 36.0 0.00 0.00 0.00 85 1009.9
20260904082556 71 188 13.0 32.0 0.00 0.00 0.00 85 1009.7
20260904082022 71 257 19.0 34.0 0.00 0.00 0.00 85 1009.9
20260904081531 71 175 15.0 33.0 0.00 0.00 0.00 86 1009.6
20260904081038 71 189 12.0 35.0 0.00 0.00 0.00 86 1009.7
20260904080526 71 176 17.0 35.0 0.00 0.00 0.00 86 1009.8
20260904080043 71 223 15.0 37.0 0.00 0.00 0.00 86 1009.7
20260904075531 70 234 19.0 37.0 0.00 0.04 0.00 87 1009.8
20260904075019 70 96 18.0 30.0 0.00 0.04 0.00 87 1009.7
20260904074547 70 227 16.0 30.0 0.00 0.04 0.00 88 1009.7
20260904074025 70 150 16.0 33.0 0.00 0.04 0.00 88 1009.7
20260904073533 70 313 17.0 33.0 0.00 0.04 0.00 88 1009.9
20260904073020 70 224 21.0 37.0 0.00 0.04 0.00 88 1009.8
20260904072528 70 166 18.0 37.0 0.00 0.04 0.00 89 1010.1
20260904072028 70 209 11.0 37.0 0.00 0.04 0.00 89 1010.2
20260904071537 69 208 20.0 30.0 0.00 0.04 0.00 89 1010.1
20260904071025 69 267 16.0 30.0 0.00 0.04 0.00 89 1010.1
20260904070534 70 183 11.0 26.0 0.00 0.04 0.00 89 1010.1
20260904070035 70 196 12.0 26.0 0.00 0.04 0.00 89 1010.0
20260904065520 70 213 14.0 27.0 0.00 0.04 0.00 89 1010.1
20260904065026 70 207 14.0 27.0 0.00 0.04 0.00 89 1010.2
20260904064535 69 132 13.0 31.0 0.00 0.04 0.00 89 1010.0
20260904064021 69 173 16.0 32.0 0.00 0.04 0.00 89 1010.2
20260904063528 69 247 10.0 29.0 0.00 0.04 0.00 89 1010.3
20260904063032 69 238 12.0 29.0 0.00 0.04 0.00 89 1010.3
20260904062523 69 190 13.0 30.0 0.00 0.04 0.00 89 1010.1
20260904062026 69 242 12.0 32.0 0.00 0.04 0.00 90 1010.1
20260904061536 69 182 13.0 32.0 0.00 0.04 0.00 90 1010.2
20260904061026 69 244 14.0 30.0 0.00 0.04 0.00 90 1010.0
20260904060531 69 136 14.0 30.0 0.00 0.04 0.00 90 1010.1
20260904060058 69 130 13.0 28.0 0.00 0.04 0.00 90 1010.2
20260904055525 69 153 15.0 32.0 0.00 0.04 0.00 90 1010.2
20260904055057 69 130 16.0 32.0 0.00 0.04 0.00 90 1010.5
20260904054520 69 187 19.0 31.0 0.00 0.04 0.00 90 1010.4
20260904054030 69 235 13.0 33.0 0.00 0.04 0.00 90 1010.3
20260904053519 69 194 14.0 33.0 0.00 0.04 0.00 90 1010.4
20260904053026 69 205 14.0 30.0 0.00 0.04 0.00 89 1010.4
20260904052535 69 232 14.0 28.0 0.00 0.04 0.00 89 1010.5
20260904052017 69 217 13.0 23.0 0.00 0.04 0.00 89 1010.5
20260904051524 69 225 11.0 45.0 0.00 0.04 0.00 89 1010.6
20260904051032 69 224 14.0 45.0 0.00 0.04 0.00 89 1010.6
20260904050520 69 212 14.0 24.0 0.00 0.04 0.00 89 1010.7
20260904050022 69 212 11.0 28.0 0.00 0.04 0.00 89 1010.5
20260904045525 69 157 14.0 31.0 0.00 0.08 0.00 88 1010.6
20260904045032 69 190 14.0 29.0 0.00 0.08 0.00 88 1010.7
20260904044522 69 201 12.0 30.0 0.00 0.08 0.00 88 1011.1
20260904044027 69 211 16.0 30.0 0.00 0.08 0.00 89 1011.0
20260904043528 69 206 11.0 25.0 0.00 0.08 0.00 89 1011.0
20260904043032 69 185 15.0 26.0 0.00 0.08 0.00 89 1011.2
20260904042521 69 223 15.0 32.0 0.00 0.08 0.00 89 1011.2
20260904042030 69 220 14.0 32.0 0.00 0.08 0.00 89 1011.4
20260904041519 69 258 15.0 29.0 0.00 0.08 0.00 89 1011.4
20260904041026 69 203 15.0 29.0 0.00 0.08 0.00 89 1011.6
20260904040529 69 215 15.0 29.0 0.00 0.08 0.00 89 1011.7
20260904040028 69 234 10.0 22.0 0.00 0.08 0.00 89 1011.8
20260904035536 69 185 13.0 22.0 0.00 0.08 0.00 89 1011.9
20260904035022 68 174 11.0 27.0 0.00 0.08 0.00 89 1011.9
20260904034530 68 194 12.0 31.0 0.00 0.08 0.00 90 1011.9
20260904034037 68 205 17.0 31.0 0.00 0.08 0.00 90 1011.7
20260904033526 68 231 10.0 21.0 0.00 0.08 0.00 90 1012.0
20260904033034 68 227 9.0 19.0 0.00 0.08 0.00 90 1012.1
20260904032524 69 231 9.0 19.0 0.00 0.08 0.00 90 1012.0
20260904032028 69 232 8.0 20.0 0.00 0.08 0.00 90 1012.1
20260904031536 69 167 9.0 20.0 0.00 0.08 0.00 90 1012.1
20260904031021 69 192 13.0 30.0 0.00 0.08 0.00 90 1012.2
20260904030558 69 255 14.0 30.0 0.00 0.08 0.00 90 1012.1
20260904030035 69 185 11.0 20.0 0.00 0.08 0.00 90 1012.3
20260904025518 69 194 11.0 22.0 0.00 0.12 0.00 90 1012.3
20260904025026 69 184 10.0 22.0 0.00 0.12 0.00 90 1012.3
20260904024534 69 184 10.0 22.0 0.00 0.12 0.00 90 1012.3
20260904024021 69 183 12.0 26.0 0.00 0.12 0.00 90 1012.3
20260904023527 69 180 13.0 29.0 0.00 0.12 0.00 90 1012.4
20260904023050 69 172 11.0 22.0 0.00 0.12 0.00 90 1012.5
20260904022535 69 192 9.0 21.0 0.00 0.12 0.00 90 1012.6
20260904022020 69 134 12.0 22.0 0.00 0.12 0.00 90 1012.6
20260904021528 69 190 13.0 22.0 0.00 0.12 0.00 90 1012.6
20260904021024 69 184 11.0 26.0 0.00 0.12 0.00 90 1012.7
20260904020550 69 145 12.0 23.0 0.00 0.12 0.00 90 1012.8
20260904020029 69 181 11.0 23.0 0.00 0.12 0.00 90 1012.8
20260904015536 69 196 10.0 22.0 0.00 0.12 0.00 90 1013.0
20260904015037 69 173 12.0 22.0 0.00 0.12 0.00 90 1012.9
20260904014539 69 215 9.0 22.0 0.00 0.12 0.00 90 1013.0
20260904014021 69 215 12.0 22.0 0.00 0.12 0.00 90 1013.1
20260904013529 69 186 10.0 28.0 0.00 0.12 0.00 90 1013.1
20260904013032 69 259 12.0 28.0 0.00 0.12 0.00 90 1013.2
20260904012521 69 182 15.0 25.0 0.00 0.12 0.00 90 1013.2
20260904012031 69 190 8.0 18.0 0.00 0.12 0.00 90 1013.3
20260904011520 69 169 10.0 21.0 0.00 0.12 0.00 90 1013.4
20260904011026 69 171 11.0 23.0 0.00 0.12 0.00 91 1013.4
20260904010526 69 219 11.0 25.0 0.00 0.12 0.00 91 1013.5
20260904010026 69 194 9.0 22.0 0.00 0.12 0.00 91 1013.5
20260904005535 69 229 11.0 24.0 0.00 0.12 0.00 91 1013.6
20260904005042 69 230 12.0 23.0 0.00 0.12 0.00 91 1013.7
20260904004545 69 201 11.0 23.0 0.00 0.12 0.00 91 1013.8
20260904004051 69 263 11.0 21.0 0.00 0.12 0.00 91 1013.8
20260904003520 69 248 10.0 20.0 0.00 0.12 0.00 91 1014.0
20260904003027 69 199 9.0 19.0 0.00 0.12 0.00 91 1013.9
20260904002528 69 198 7.0 16.0 0.00 0.12 0.00 91 1013.9
20260904002035 69 180 10.0 20.0 0.00 0.12 0.00 91 1014.0
20260904001525 69 194 9.0 20.0 0.00 0.12 0.00 91 1014.2
20260904001032 69 194 8.0 20.0 0.00 0.12 0.00 91 1014.2
20260904000521 69 140 10.0 25.0 0.00 0.12 0.00 91 1014.2
20260904000019 69 240 10.0 25.0 0.00 0.12 0.00 91 1014.3
20260903235529 69 242 11.0 25.0 0.00 0.12 0.00 91 1014.3
20260903235037 69 283 12.0 23.0 0.00 0.12 0.00 91 1014.4
20260903234525 69 208 12.0 21.0 0.00 0.12 0.00 91 1014.4
20260903234029 69 139 9.0 18.0 0.00 0.12 0.00 91 1014.4
20260903233533 69 181 8.0 21.0 0.00 0.12 0.00 91 1014.3
20260903233020 69 213 10.0 21.0 0.00 0.12 0.00 91 1014.4
20260903232554 69 243 8.0 21.0 0.00 0.12 0.00 91 1014.5
20260903232022 69 223 8.0 21.0 0.00 0.12 0.00 91 1014.4
20260903231531 69 184 9.0 22.0 0.00 0.12 0.00 91 1014.4
20260903231033 69 180 11.0 22.0 0.00 0.12 0.00 91 1014.5
20260903230520 69 191 10.0 22.0 0.00 0.12 0.00 91 1014.5
20260903230020 69 160 11.0 20.0 0.00 0.12 0.00 91 1014.7
20260903225528 69 176 13.0 21.0 0.00 0.12 0.00 91 1014.8
20260903225028 69 160 9.0 16.0 0.00 0.12 0.00 91 1014.7
20260903224537 69 182 8.0 17.0 0.00 0.12 0.00 90 1014.9
20260903224022 69 190 9.0 22.0 0.00 0.12 0.00 90 1014.8
20260903223524 69 199 12.0 22.0 0.00 0.12 0.00 90 1014.9
20260903223030 69 173 11.0 22.0 0.00 0.12 0.00 90 1014.9
20260903222535 69 217 8.0 21.0 0.00 0.12 0.00 90 1015.0
20260903222042 69 196 11.0 21.0 0.00 0.12 0.00 90 1014.9
20260903221549 69 231 12.0 24.0 0.00 0.12 0.00 90 1015.1
20260903221033 69 187 12.0 24.0 0.00 0.12 0.00 90 1015.2
20260903220517 69 246 10.0 21.0 0.00 0.12 0.00 90 1015.2
20260903220030 69 165 10.0 20.0 0.00 0.12 0.00 90 1015.2
20260903215534 69 234 9.0 21.0 0.00 0.12 0.02 90 1015.3
20260903215022 69 187 11.0 21.0 0.00 0.12 0.02 90 1015.3
20260903214525 69 217 13.0 24.0 0.00 0.12 0.02 90 1015.4
20260903214031 69 210 11.0 24.0 0.00 0.12 0.02 90 1015.3
20260903213537 69 149 10.0 29.0 0.00 0.12 0.02 90 1015.4
20260903213024 69 235 14.0 19.0 0.00 0.12 0.02 90 1015.5
20260903212534 69 206 9.0 20.0 0.00 0.12 0.02 90 1015.5
20260903212018 69 175 10.0 22.0 0.00 0.12 0.02 90 1015.5
20260903211523 69 212 12.0 22.0 0.00 0.12 0.02 90 1015.4
20260903211030 69 212 11.0 21.0 0.00 0.12 0.02 90 1015.5
20260903210536 69 157 13.0 27.0 0.00 0.12 0.02 90 1015.5
20260903210056 69 151 11.0 29.0 0.00 0.12 0.02 91 1015.6
20260903205519 69 162 8.0 21.0 0.00 0.12 0.02 91 1015.4
20260903205045 69 263 9.0 25.0 0.00 0.12 0.02 90 1015.6
20260903204530 69 192 9.0 24.0 0.00 0.12 0.02 90 1015.7
20260903204030 69 165 13.0 24.0 0.00 0.12 0.02 90 1015.7
20260903203518 69 213 13.0 22.0 0.00 0.12 0.02 90 1016.1
20260903203022 69 228 10.0 22.0 0.00 0.12 0.02 90 1016.0
20260903202527 69 245 9.0 21.0 0.00 0.12 0.02 90 1016.1
20260903202031 69 126 8.0 20.0 0.00 0.12 0.02 90 1016.0
20260903201535 69 185 12.0 20.0 0.00 0.12 0.02 90 1016.0
20260903201019 69 155 11.0 21.0 0.00 0.12 0.02 90 1016.2
20260903200527 69 227 13.0 23.0 0.00 0.12 0.02 90 1016.2
20260903200025 69 256 12.0 31.0 0.00 0.12 0.02 90 1016.2
20260903195532 69 180 13.0 34.0 0.00 0.12 0.02 90 1016.0
20260903195033 69 130 10.0 20.0 0.00 0.12 0.02 90 1016.1
20260903194522 69 221 10.0 27.0 0.00 0.12 0.02 90 1016.1
20260903194025 69 140 11.0 27.0 0.00 0.12 0.02 90 1016.1
20260903193553 69 215 10.0 22.0 0.00 0.12 0.02 90 1016.1
20260903193033 69 174 11.0 22.0 0.00 0.12 0.02 90 1016.2
20260903192037 69 187 9.0 28.0 0.00 0.12 0.02 90 1016.2
20260903191546 69 115 12.0 24.0 0.00 0.12 0.02 90 1016.1
20260903191028 69 261 8.0 27.0 0.00 0.12 0.02 90 1016.0
20260903190532 69 188 9.0 27.0 0.00 0.12 0.02 90 1016.1
20260903190035 69 219 9.0 16.0 0.00 0.12 0.02 90 1016.2
20260903185524 69 209 10.0 22.0 0.00 0.12 0.02 90 1016.1
20260903185028 69 151 11.0 22.0 0.00 0.12 0.02 90 1016.1
20260903184527 69 172 10.0 19.0 0.00 0.12 0.02 90 1016.2
20260903184034 69 207 12.0 19.0 0.00 0.12 0.02 90 1016.3
20260903183523 69 185 8.0 24.0 0.00 0.12 0.02 90 1016.3
20260903183050 69 175 11.0 24.0 0.00 0.12 0.02 90 1016.4
20260903182528 69 183 13.0 23.0 0.00 0.12 0.02 90 1016.3
20260903182033 69 65 9.0 24.0 0.00 0.12 0.02 90 1016.3
20260903181521 69 146 11.0 24.0 0.00 0.12 0.02 89 1016.4
20260903181027 69 181 10.0 24.0 0.00 0.12 0.02 89 1016.4
20260903180548 69 198 12.0 24.0 0.00 0.12 0.02 89 1016.3
20260903180023 69 165 10.0 25.0 0.00 0.12 0.02 89 1016.3
20260903175549 69 200 13.0 25.0 0.00 0.12 0.02 89 1016.3
20260903175032 70 180 11.0 24.0 0.00 0.12 0.02 89 1016.3
20260903174521 70 205 8.0 13.0 0.00 0.12 0.02 89 1016.3
20260903174024 70 192 7.0 14.0 0.00 0.12 0.02 88 1016.6
20260903173533 70 138 6.0 20.0 0.00 0.12 0.02 88 1016.3
20260903173020 70 136 10.0 22.0 0.00 0.12 0.02 88 1016.4
20260903172526 70 156 9.0 16.0 0.00 0.12 0.02 88 1016.6
20260903172027 70 167 10.0 24.0 0.00 0.12 0.02 88 1016.5
20260903171535 70 188 13.0 24.0 0.00 0.12 0.02 87 1016.6
20260903171022 70 155 7.0 24.0 0.00 0.12 0.02 87 1016.5
20260903170529 70 233 11.0 22.0 0.00 0.12 0.02 87 1016.6
20260903170029 70 197 7.0 17.0 0.00 0.12 0.02 87 1016.7
20260903165551 70 173 10.0 21.0 0.00 0.12 0.02 86 1016.6
20260903165018 71 235 10.0 18.0 0.00 0.12 0.02 86 1016.5
20260903164527 71 172 9.0 15.0 0.00 0.12 0.02 86 1016.4
20260903164033 71 167 9.0 22.0 0.00 0.12 0.02 86 1016.3
20260903163521 71 185 11.0 22.0 0.00 0.12 0.02 85 1016.4
20260903163022 71 139 7.0 19.0 0.00 0.12 0.02 85 1016.4
20260903162528 71 215 9.0 19.0 0.00 0.12 0.02 85 1016.3
20260903162036 71 157 9.0 18.0 0.00 0.12 0.02 85 1016.3
20260903161523 71 189 9.0 18.0 0.00 0.12 0.02 85 1016.7
20260903161022 71 202 9.0 17.0 0.00 0.12 0.02 84 1016.9
20260903160532 72 253 9.0 18.0 0.00 0.12 0.02 84 1016.9
20260903160033 72 164 11.0 22.0 0.00 0.12 0.02 83 1016.9
20260903155521 72 217 11.0 22.0 0.00 0.12 0.02 83 1016.8
20260903155030 72 161 8.0 20.0 0.00 0.12 0.02 83 1016.7
20260903154517 72 234 8.0 18.0 0.00 0.12 0.02 83 1016.6
20260903154022 72 220 8.0 18.0 0.00 0.12 0.02 82 1016.7
20260903153529 72 239 10.0 18.0 0.00 0.12 0.02 83 1016.6
20260903153036 72 169 9.0 25.0 0.00 0.12 0.02 83 1016.6
20260903152523 72 217 13.0 25.0 0.00 0.12 0.02 83 1016.7
20260903152026 72 257 7.0 19.0 0.00 0.12 0.02 83 1016.7
20260903151534 72 218 10.0 16.0 0.00 0.12 0.02 83 1016.8
20260903151021 72 221 8.0 21.0 0.00 0.12 0.02 82 1016.8
20260903150527 72 226 9.0 21.0 0.00 0.12 0.02 82 1016.9
20260903150025 73 219 10.0 17.0 0.00 0.12 0.02 81 1016.8
20260903145545 73 254 7.0 18.0 0.00 0.12 0.02 81 1016.9
20260903145027 73 232 8.0 17.0 0.00 0.12 0.02 79 1016.9
20260903144534 73 152 9.0 17.0 0.00 0.12 0.02 79 1016.8
20260903144022 73 229 9.0 19.0 0.00 0.12 0.02 79 1016.8
20260903143028 73 267 7.0 23.0 0.00 0.12 0.02 80 1016.9
20260903142534 73 205 11.0 23.0 0.00 0.12 0.02 80 1016.9
20260903142018 73 216 10.0 21.0 0.00 0.12 0.02 80 1016.8
20260903141545 73 209 10.0 20.0 0.00 0.12 0.02 80 1016.8
20260903141056 73 236 11.0 20.0 0.00 0.12 0.02 80 1016.7
20260903140542 72 144 9.0 21.0 0.00 0.12 0.02 79 1016.8
20260903140037 72 300 9.0 23.0 0.00 0.12 0.02 80 1016.8
20260903135521 72 236 11.0 23.0 0.00 0.12 0.02 79 1016.8
20260903135022 72 246 9.0 14.0 0.00 0.12 0.02 80 1016.9
20260903134526 72 244 9.0 15.0 0.00 0.12 0.02 78 1016.9
20260903134022 73 246 8.0 16.0 0.00 0.12 0.02 78 1016.8
20260903133527 73 250 6.0 23.0 0.00 0.12 0.02 77 1016.7
20260903133051 73 244 12.0 20.0 0.00 0.12 0.02 77 1016.8
20260903132519 73 202 15.0 20.0 0.00 0.12 0.02 76 1016.8
20260903132024 73 209 11.0 19.0 0.00 0.12 0.02 77 1016.8
20260903131526 73 186 11.0 21.0 0.00 0.12 0.02 77 1016.8
20260903131034 73 172 11.0 21.0 0.00 0.12 0.02 77 1016.8
20260903130521 73 251 11.0 18.0 0.00 0.12 0.02 78 1016.8
20260903130023 72 202 11.0 25.0 0.00 0.12 0.02 78 1016.8
20260903125521 72 179 11.0 25.0 0.00 0.12 0.02 79 1016.7